EHI
0 0 0 0 0 0 1 3 7 10 9 6 2 1 0 0 0 0 0 0 0 0 0 0 0 0 0 0 0 0 0 0 0 0 0 0 0 0 0 0 0 0 0
0 0 0 0 0 0 0 1 5 9 9 7 4 1 0 0 0 0 0 0 0 0 0 0 0 0 0 0 0 0 0 0 0 0 0 0 0 0 0 0 0 0 0
0 0 0 0 0 0 0 0 3 5 6 5 3 0 0 0 0 0 0 0 0 0 0 0 0 0 0 0 0 0 0 0 0 0 0 0 0 0 0 0 0 0 0
0 0 0 0 0 0 0 0 1 2 2 2 1 0 0 0 0 0 0 0 0 0 0 0 0 0 0 0 0 0 0 0 0 0 0 0 0 0 0 0 0 0 0
0 0 0 0 0 0 0 0 0 0 0 0 0 0 0 0 0 0 0 0 0 0 0 0 0 0 0 0 0 0 0 0 0 0 0 0 0 0 0 0 0 0 0
0 0 0 0 0 0 0 0 0 0 0 0 0 0 0 0 0 0 0 0 0 0 0 0 0 0 0 0 0 0 0 0 0 0 0 0 0 0 0 0 0 0 0
0 0 0 0 0 0 0 0 0 0 0 0 0 0 0 0 0 0 0 0 0 0 0 0 0 0 0 0 0 0 0 0 0 0 0 0 0 0 0 0 0 0 0
0 0 0 0 0 0 0 0 0 0 0 0 0 0 0 0 0 0 0 0 0 0 0 0 0 0 0 0 0 0 0 0 0 0 0 0 0 0 0 0 0 0 0
0 0 0 0 0 0 0 0 0 0 0 0 0 0 0 0 0 0 0 0 0 0 0 0 0 0 0 0 0 0 0 0 0 0 0 0 0 0 0 0 0 0 0
0 0 0 0 0 0 0 0 0 0 0 0 0 0 0 0 0 0 0 0 0 0 0 0 0 0 0 0 0 0 0 0 0 0 0 0 0 0 0 0 0 0 0
0 0 0 0 0 0 0 0 0 0 0 0 0 0 0 0 0 0 0 0 0 0 0 0 0 0 0 0 0 0 0 0 0 0 0 0 0 0 0 0 0 0 0
0 0 0 0 0 0 0 0 0 0 0 0 0 0 0 0 0 0 0 0 0 0 0 0 0 0 0 0 0 0 0 0 0 0 0 0 0 0 0 0 0 0 0
0 0 0 0 0 0 0 0 0 0 0 0 0 0 0 0 0 0 0 0 0 0 0 0 0 0 0 0 0 0 0 0 0 0 0 0 0 0 0 0 0 0 0
1 1 1 0 0 0 0 0 0 0 0 0 0 0 0 0 0 0 0 0 0 0 0 0 0 0 0 0 0 0 0 0 0 0 0 0 0 0 0 0 0 0 0
2 2 2 1 0 0 0 0 0 0 0 0 0 0 0 0 0 0 0 0 0 0 0 0 0 0 0 0 0 0 0 0 0 0 0 0 0 0 0 0 0 0 0
3 4 4 2 1 0 0 0 0 0 0 0 0 0 0 0 0 0 0 0 0 0 0 0 0 0 0 0 0 0 0 0 0 0 0 0 0 0 0 0 0 0 0
2 4 7 7 3 1 0 0 0 0 0 0 0 0 0 0 0 0 0 0 0 0 0 0 0 0 0 0 0 0 0 0 0 0 0 0 0 0 0 0 0 0 0
1 2 6 10 8 4 1 0 0 0 0 0 0 0 0 0 0 0 0 0 0 0 0 0 0 0 0 0 0 0 0 0 0 0 0 0 0 0 0 0 0 0 0
0 0 3 8 12 11 6 3 1 0 0 0 0 0 0 0 0 0 0 0 0 0 0 0 0 0 0 0 0 0 0 0 0 0 0 0 0 0 0 0 0 0 0
0 0 0 3 10 16 16 12 7 3 1 1 1 0 0 0 0 0 0 0 0 0 0 0 0 0 0 0 0 0 0 0 0 0 0 0 0 0 0 0 0 0 0
0 0 0 1 4 13 22 24 19 12 6 4 3 2 1 0 0 0 0 0 0 0 0 0 0 0 0 0 0 0 0 0 0 0 0 0 0 0 0 0 0 0 0
0 0 0 0 0 6 18 27 27 18 10 7 5 5 3 2 1 0 0 0 0 0 0 0 0 0 0 0 0 0 0 0 0 0 0 0 0 0 0 0 0 0 0
0 0 0 0 0 2 8 18 22 18 11 9 8 8 6 5 4 2 0 0 0 0 0 0 0 0 0 0 0 0 0 0 0 0 0 0 0 0 0 0 0 0 0
0 0 0 0 0 0 2 7 13 15 11 8 9 9 7 6 5 3 1 0 0 0 0 0 0 0 0 0 0 0 0 0 0 0 0 0 0 0 0 0 0 0 0
0 0 0 0 0 0 0 2 6 9 8 6 6 6 6 6 5 3 1 0 0 0 0 0 0 0 0 0 0 0 0 0 0 0 0 0 0 0 0 0 0 0 0
0 0 0 0 0 0 0 0 1 3 3 3 2 2 5 6 5 2 1 0 0 0 0 0 0 0 0 0 0 0 0 0 0 0 0 0 0 0 0 0 0 0 0
Wind_Speed
5 6 13 15 14 14 14 14 15 15 15 14 14 13 12 11 9 8 7 7 7 8 9 11 13 13 13 13 12 12 12 12 12 11 10 10 9 9 9 8 7 4 7
8 8 13 14 15 14 14 14 14 14 14 14 13 12 11 10 9 8 7 7 7 8 10 12 13 13 13 13 12 12 11 11 10 9 8 7 6 7 8 6 5 3 6
10 8 12 14 14 14 14 14 14 14 14 13 12 11 10 10 9 8 8 8 8 9 10 12 13 13 12 12 11 11 10 9 8 7 6 3 3 5 6 5 4 4 4
11 8 9 13 14 15 15 15 14 14 14 13 12 11 10 10 9 9 9 9 10 10 11 12 12 12 11 11 10 10 9 8 7 6 3 2 3 3 5 4 4 4 3
9 7 9 14 14 15 15 15 14 14 14 13 12 11 10 10 10 10 10 10 11 11 11 11 11 11 10 10 9 8 8 7 7 5 2 1 2 2 4 4 3 3 2
8 7 9 14 14 14 14 14 14 15 14 13 12 11 11 10 10 10 10 10 10 10 10 10 10 9 9 8 8 7 7 7 6 4 2 1 2 2 6 6 5 5 6
7 6 8 13 14 14 14 14 14 14 14 14 13 12 11 11 10 10 10 9 9 9 9 9 9 8 8 7 7 6 6 7 5 3 2 2 2 5 9 10 10 11 12
8 7 8 12 12 13 13 13 13 14 14 14 13 12 11 11 11 10 10 9 8 8 8 8 7 7 6 6 6 6 6 6 5 3 2 2 2 7 10 12 13 14 14
7 6 6 7 8 11 11 11 12 12 13 13 13 12 10 10 11 11 10 9 8 7 7 7 6 6 5 5 6 5 6 7 5 2 2 2 4 9 11 12 14 15 15
6 6 6 6 6 6 7 10 10 11 12 12 12 10 9 9 10 10 9 8 7 7 6 5 5 5 5 6 6 6 8 7 4 3 2 1 6 9 11 11 12 13 13
8 6 5 6 6 6 5 7 8 9 10 10 9 10 8 5 5 6 6 6 6 6 6 5 5 6 7 7 8 8 7 3 3 2 1 3 8 10 11 11 12 11 12
13 10 6 6 6 6 5 4 4 4 5 5 5 6 4 4 3 4 6 6 5 5 4 4 5 7 6 4 5 7 3 4 3 2 1 6 9 11 11 11 11 11 10
12 11 10 8 6 6 4 4 3 3 3 4 5 6 5 4 3 3 2 3 2 3 2 3 4 3 3 3 3 3 3 3 2 1 1 7 10 11 11 10 10 9 9
10 12 11 9 7 6 5 4 4 3 3 4 5 6 5 3 3 3 3 3 2 2 3 2 2 3 4 4 4 4 4 2 2 1 2 8 10 10 10 9 9 8 8
10 11 11 11 10 8 6 5 5 5 5 5 5 6 6 5 5 4 3 3 3 3 3 3 3 4 4 4 3 4 4 3 3 2 2 8 10 10 9 8 7 7 7
12 12 11 12 11 10 8 7 6 6 6 6 6 7 8 6 5 5 4 4 4 3 3 4 4 4 3 3 3 4 4 3 3 3 3 5 9 9 8 7 7 7 7
10 10 12 12 12 12 11 10 7 6 7 7 7 8 9 8 7 6 5 5 4 4 5 4 4 3 3 3 3 3 3 3 3 3 3 3 3 6 8 7 7 6 6
8 9 12 12 13 14 13 11 8 7 8 8 7 7 10 10 9 7 6 6 5 5 5 5 4 4 3 3 3 2 2 3 3 3 3 3 2 2 4 6 6 5 5
8 9 10 12 13 15 15 11 10 8 9 8 7 8 10 11 11 8 7 6 7 5 5 6 3 3 3 3 3 2 2 2 3 3 3 3 2 2 2 3 5 4 3
8 8 9 9 12 12 11 8 7 8 8 7 8 9 11 11 12 10 7 8 8 6 5 5 5 3 3 4 3 3 1 1 2 2 3 2 2 2 2 2 2 2 3
7 8 9 9 10 9 7 9 10 11 10 10 10 12 12 12 12 12 8 9 9 9 9 9 5 4 3 3 3 2 1 1 1 2 2 2 2 2 2 2 1 1 1
7 8 8 9 9 9 9 9 7 8 8 10 8 10 12 12 13 12 12 10 10 8 9 9 6 5 3 4 4 3 1 1 1 1 2 3 3 2 3 2 2 1 0
6 7 7 8 9 9 9 6 3 3 2 5 7 9 11 13 13 13 14 12 12 11 11 12 10 10 6 3 3 5 5 5 2 0 0 1 2 2 2 2 2 1 0
5 5 5 6 7 7 7 7 9 9 10 10 10 10 11 13 14 14 13 13 12 11 11 12 10 7 8 5 2 1 1 3 4 2 1 0 1 3 3 2 2 1 1
5 4 4 4 5 6 6 8 10 11 10 7 6 8 9 9 12 13 13 12 12 10 11 11 10 8 6 7 6 4 3 2 1 3 3 2 1 1 2 2 2 2 2
7 6 5 4 4 4 5 7 9 11 10 8 8 9 9 7 8 11 11 11 11 9 10 10 10 10 6 6 5 4 4 4 3 3 3 2 2 1 1 1 2 2 2
Wind_Direction
174 167 166 158 156 155 153 149 143 137 132 128 124 120 117 115 113 111 114 120 128 135 133 124 115 105 98 94 92 91 88 84 81 75 68 65 76 88 89 84 69 50 77
149 159 161 158 157 156 154 148 141 136 133 130 125 123 120 118 117 115 116 122 128 130 126 119 111 104 100 97 97 95 92 87 85 79 65 45 48 88 95 92 86 84 83
140 155 156 156 156 155 150 144 141 138 136 133 130 128 126 125 122 117 115 116 120 121 117 111 105 101 100 100 100 96 90 84 84 86 74 41 22 91 100 103 101 92 87
144 149 151 156 156 154 148 145 145 143 141 139 136 133 133 132 128 119 112 106 105 109 107 104 101 103 103 103 102 95 86 80 84 91 78 37 348 82 102 100 92 89 81
142 144 153 154 155 153 151 150 150 149 147 144 141 139 138 138 133 124 116 108 104 106 107 106 105 106 106 107 104 95 82 79 86 91 87 36 342 43 90 85 77 72 57
138 141 154 153 155 155 155 156 158 156 152 150 147 145 144 143 138 129 122 115 113 113 113 113 113 113 112 111 105 91 80 87 91 92 80 6 320 25 73 74 72 66 62
137 141 154 155 158 160 162 164 165 162 158 156 154 152 150 147 142 135 131 128 125 124 124 124 123 121 119 114 104 92 87 102 105 100 67 346 324 65 68 67 67 66 66
142 143 154 158 160 165 169 171 171 168 164 161 161 159 155 150 147 145 145 143 141 139 136 132 130 128 123 113 103 95 98 105 105 99 63 356 20 75 75 74 70 68 67
139 144 151 154 160 167 172 175 178 173 168 166 167 164 158 153 153 154 154 155 152 146 141 137 134 129 117 103 96 96 102 106 100 88 57 11 65 82 79 77 74 71 67
145 153 155 153 156 163 173 180 183 177 171 171 171 166 159 159 161 163 164 167 161 154 147 144 138 125 102 92 93 98 102 99 95 80 44 45 83 87 84 80 77 72 68
172 173 165 163 164 163 169 181 180 177 175 175 174 167 158 156 159 165 171 178 171 162 157 153 139 112 88 79 91 98 94 92 97 77 40 93 96 94 90 85 79 74 69
188 188 181 177 173 168 176 170 169 170 173 170 164 160 151 153 162 165 179 186 180 167 162 157 130 103 88 74 80 87 85 94 88 73 81 108 106 101 96 89 84 78 71
191 194 194 188 181 176 175 167 168 164 164 166 166 161 155 153 157 158 159 181 174 150 116 106 91 89 96 101 95 93 98 90 82 57 93 113 114 109 103 96 88 80 73
196 200 199 194 189 187 182 177 175 174 173 174 174 167 159 160 167 165 166 165 154 137 132 115 109 106 102 103 111 112 108 100 92 72 101 114 117 114 108 101 92 83 73
209 207 205 199 197 193 189 188 187 189 187 183 179 179 173 173 178 177 176 171 166 153 150 142 132 127 119 113 115 121 122 115 105 85 88 112 116 118 114 106 94 82 71
216 215 209 207 203 198 199 198 195 194 192 189 191 187 183 182 181 180 181 180 177 169 160 152 147 139 130 122 116 121 127 124 112 101 85 108 118 122 120 111 96 80 65
215 216 213 211 206 204 205 204 201 198 196 201 201 193 192 189 186 186 187 188 184 167 150 134 127 120 123 120 118 125 130 135 132 122 107 91 105 120 126 118 104 86 64
220 215 216 213 208 209 209 206 206 200 200 206 202 199 199 196 190 188 191 193 177 162 154 149 142 128 134 137 137 136 133 141 146 141 122 114 101 95 120 125 112 92 65
228 222 217 214 210 210 210 208 207 203 204 206 202 204 203 200 195 192 194 188 171 167 165 162 149 144 151 154 145 123 121 149 161 156 152 143 131 121 98 123 111 92 57
233 228 224 219 217 212 209 207 207 208 210 208 207 210 203 201 196 193 192 182 172 171 170 165 149 131 137 145 125 97 76 137 162 175 179 164 160 150 129 102 88 56 34
235 229 227 222 222 210 200 205 209 214 213 211 213 211 205 202 195 194 191 181 179 183 181 169 146 142 137 142 118 94 31 52 164 187 182 176 182 172 153 144 129 94 3
232 227 226 225 225 215 208 207 207 210 214 215 213 210 207 202 197 195 191 187 186 181 175 174 156 146 146 167 147 136 200 295 257 178 181 187 188 168 168 164 151 142 60
250 237 231 226 227 223 216 205 190 184 195 202 208 212 209 203 199 198 195 189 187 184 186 185 177 162 160 179 187 157 164 211 203 256 221 181 179 173 172 160 158 142 118
274 262 244 237 233 229 215 203 199 205 212 213 212 213 208 203 201 200 195 192 189 189 187 186 182 172 152 162 173 147 128 144 155 182 245 231 194 187 183 173 154 142 119
319 309 287 264 250 242 225 213 209 217 222 218 210 211 208 205 202 199 194 192 190 192 189 181 178 177 169 163 160 153 138 87 115 152 187 211 236 218 206 191 177 161 135
348 346 337 316 287 266 243 230 220 222 221 214 210 211 210 204 201 199 193 192 190 188 186 182 178 177 173 159 154 151 151 154 170 162 162 174 211 268 274 231 192 172 153